Regional Weather Roundup
Issued by NWS

Current Version | Previous Version | Text Only | Print | Product List | Glossary On
Versions: 1 2 3 4 5 6 7 8 9 10 11 12 13 14 15 16 17 18 19 20 21 22 23 24 25 26 27 28 29 30 31 32 33 34 35 36 37 38 39 40 41 42 43 44 45 46 47 48 49 50
000
ASUS44 KFWD 190915
RWRTX
NORTH TEXAS HOURLY WEATHER ROUNDUP
NATIONAL WEATHER SERVICE FORT WORTH TX
400 AM CDT SAT AUG 19 2017

NOTE: "FAIR" INDICATES FEW OR NO CLOUDS BELOW 12,000 FEET WITH NO
SIGNIFICANT WEATHER AND/OR OBSTRUCTIONS TO VISIBILITY.

TXZ118-119-191000-
DALLAS/FORT WORTH METROPLEX

CITY           SKY/WX    TMP DP  RH WIND       PRES   REMARKS
DFW AIRPORT    CLEAR     80  74  81 S6        29.95F
DALLAS LOVE    PTCLDY    81  73  76 S8        29.96F
FTW MEACHAM    CLEAR     80  75  84 E3        29.96F
DAL-EXECUTIVE  CLEAR     80  73  79 S5        29.96F
FTW-ALLIANCE   CLEAR     73  73 100 CALM      29.96F
FTW-NAS-JRB    CLEAR     79  73  82 CALM      29.97S
FTW-SPINKS     CLEAR     77  72  84 S5        29.98S
ARLINGTON      CLEAR     78  74  87 S3        29.97S
GRAND PRAIRIE  CLEAR     80  71  74 CALM      29.98S
ADDISON        CLEAR     79  73  81 S6        29.98F
MESQUITE         N/A     76  74  95 SW5       29.97F
LANCASTER      CLEAR     76  72  88 CALM      29.98S
$$

TXZ091>094-102>105-117-120-121-131>134-191000-
NORTH CENTRAL TEXAS

CITY           SKY/WX    TMP DP  RH WIND       PRES   REMARKS
SHRMAN/DENISON CLEAR     77  73  86 S3        29.98F
GAINESVILLE    CLEAR     73  72  94 CALM      29.99F
BOWIE          PTCLDY    73  73  99 CALM      29.99S
BRIDGEPORT     CLEAR     72  72 100 CALM      29.99S
DECATUR        CLEAR     77  73  87 SE3       29.99S
DENTON         CLEAR     73  73 100 CALM      29.96F
MCKINNEY       CLEAR     75  75 100 CALM      29.97F
BONHAM         CLEAR     73  73 100 CALM      29.97F
GREENVILLE     CLEAR     79  75  89 S3        29.98S
ROCKWALL       CLEAR     78  74  89 S7        29.98S
TERRELL        CLEAR     78  72  81 S5        29.98S
WAXAHACHIE     CLEAR     77  73  86 S3        29.99S
CLEBURNE       CLEAR     79  73  83 S8        29.99F
GRANBURY       CLEAR     77  73  85 CALM      29.99S
$$

TXZ083>090-098>101-113>116-127>130-139>142-154-155-191000-
WESTERN NORTH TEXAS

CITY           SKY/WX    TMP DP  RH WIND       PRES   REMARKS
WICHITA FALLS  PTCLDY    74  71  91 SE6       29.97S
WF-KICKAPOO    PTCLDY    76  73  89 S5        29.99S
VERNON         PTCLDY    77  70  78 CALM      29.99S
ABILENE        PTCLDY    73  72  96 S8        30.02F
ABILENE-DYESS  CLOUDY    74  71  92 S7        30.01S
GRAHAM         CLEAR     75  75 100 CALM      29.97S
BRECKENRIDGE   PTCLDY    78  70  76 CALM      29.99S
CISCO          PTCLDY    73  72  94 S6        30.02F
EASTLAND       PTCLDY    71  70  98 CALM      30.01S
RANGER         PTCLDY    75  69  81 S3        30.01S
MINERAL WELLS  CLEAR     76  72  87 SE8       29.97F
STEPHENVILLE   CLEAR     74  71  88 CALM      30.02F
COMANCHE       CLOUDY    74  71  92 S6        30.01F
BROWNWOOD      MOCLDY    75  68  78 CALM      30.01S
COLEMAN        MOCLDY    78  65  66 CALM      30.03R
$$

TXZ143>147-156>162-174-175-191000-
CENTRAL TEXAS

CITY           SKY/WX    TMP DP  RH WIND       PRES   REMARKS
WACO           CLEAR     81  72  74 S8        29.98S
WACO-MCGREGOR  CLEAR     81  71  71 S8        29.99S
HILLSBORO      CLEAR     80  72  76 S7        29.98S
CORSICANA      CLEAR     78  71  79 S7        29.99S
MEXIA          CLEAR     76  70  81 S7        29.99S
HEARNE         CLEAR     77  73  86 CALM      30.01R
CAMERON        CLEAR     78  71  77 S5        29.99S
TEMPLE         CLEAR     79  70  74 S8        30.00S
KILLEEN        CLEAR     79  68  69 S8        30.00S
KILLEEN-SKYLRK CLEAR     79  69  71 S9        30.00S
FORT HOOD      CLEAR     79  69  70 S7        29.97S
HAMILTON       PTCLDY    78  69  74 S8        30.02S
LAMPASAS       CLEAR     78  71  78 S3        30.00S
$$

TXZ095>097-106>112-122>126-135>138-148>153-164>167-191000-
EAST TEXAS

CITY           SKY/WX    TMP DP  RH WIND       PRES   REMARKS
PARIS          CLEAR     75  74  96 E5        29.98F
SULPHUR SPRNGS CLEAR     81  74  79 S8        29.99F
MOUNT PLEASANT CLEAR     76  76 100 CALM      29.99S
GILMER         CLEAR     76  75  94 CALM      29.99S
MINEOLA        CLEAR     79  75  89 S3        29.98F
TYLER          CLEAR     79  76  90 S7        29.99S
LONGVIEW       CLEAR     78  76  93 S6        29.98S
MARSHALL         N/A     75  73  92 CALM      30.01S
ATHENS         CLEAR     77  72  83 CALM      29.98S
PALESTINE      CLEAR     79  74  84 S5        30.01S
JACKSONVILLE   CLEAR     78  75  91 S6        30.03S
HENDERSON      CLEAR     77  74  91 CALM      30.01S
CENTER         CLOUDY    82  80  91 CALM      30.01S HX  94
NACOGDOCHES    CLEAR     78  75  90 CALM      30.01S
LUFKIN         CLEAR     77  74  90 CALM      30.00S
$$

SUPPLEMENTAL OBSERVATIONS (NWS FORT WORTH AREA)

CITY           SKY/WX    TMP DP  RH WIND       PRES   REMARKS
DENISON DAM      N/A     75  72  88 E2          N/A
CADDO GRASSLND   N/A     73  72  94 CALM        N/A
PAT MAYSE LAKE   N/A     75  73  94 NE1         N/A
GREENVILLE       N/A     79  73  83 S6          N/A
CEDAR HILL       N/A     81  68  65 S5          N/A
LBJ GRASSLAND    N/A     75  72  88 SE3         N/A
POSSUM KINGDOM   N/A     77  70  78 SE5         N/A
GRANBURY         N/A     75  72  88 S2          N/A
COMANCHE         N/A     75  68  78 S7          N/A
MCGREGOR         N/A     79  70  73 S6          N/A
TEMPLE           N/A     79  70  73 S5          N/A
LAKE LIMESTONE   N/A     79  72  78 S5          N/A
ATHENS           N/A     81  75  83 S6          N/A
$$

SUPPLEMENTAL OBSERVATIONS (NWS NORMAN AREA)

CITY           SKY/WX    TMP DP  RH WIND       PRES   REMARKS
GOODLETT         N/A     75  67  77 S7        29.99
ODELL            N/A     75  72  88 S5        29.99
CROWELL          N/A     76  71  85 SW6       29.99
KNOX CITY        N/A     76  68  77 SW5       30.00
SEYMOUR          N/A     78  70  77 S7        29.98
MILLERS CREEK    N/A     79  72  78 S8          N/A
$$

SUPPLEMENTAL OBSERVATIONS (NWS SAN ANGELO AREA)

CITY           SKY/WX    TMP DP  RH WIND       PRES   REMARKS
WEINERT          N/A     76  71  85 S8        30.00
HASKELL          N/A     76  68  74 S5        30.00
THROCKMORTON     N/A     75  72  91 SW3       30.00
STAMFORD         N/A     74  70  86 S5        30.01
CLYDE            N/A     75  69  84 S8        30.04
HAMBY            N/A     75  68  78 S2          N/A
IVIE RESERVOIR   N/A     75  66  73 SE7         N/A
COLORADO BEND    N/A     79  68  69 S8G16       N/A
$$

SUPPLEMENTAL OBSERVATIONS (NWS SHREVEPORT AREA)

CITY           SKY/WX    TMP DP  RH WIND       PRES   REMARKS
CLARKSVILLE      N/A     77  73  88 S1          N/A
CADDO LAKE       N/A     73  72  94 CALM        N/A
GILMER           N/A     75  73  94 CALM        N/A
HENDERSON        N/A     79  77  94 S1          N/A
LUFKIN           N/A     77  75  94 MISG        N/A
N SABINE NF      N/A     77  73  88 MISG        N/A
S SABINE NF      N/A     75  73  94 SW2         N/A
$$

SUPPLEMENTAL OBSERVATIONS ARE A COLLECTION OF AUTOMATED INSTRUMENTS
THAT ARE MAINTAINED BY A VARIETY OF FEDERAL AND STATE AGENCIES.
CERTAIN ELEMENTS...SUCH AS HUMIDITY VALUES AND SUSTAINED WIND
SPEEDS...MAY BE APPROXIMATED.





USA.gov is the U.S. government's official web portal to all federal, state and local government web resources and services.